NWK1613 YGEL-YPPH

Flight info

Callsign NWK1613
Flight time 0h 39m
Altitude 19000
Route GEL Z41 HINDS/N0349F180 Q38 JULIM
Aircraft A20N/M-SDE2E3FGHIRWXY/LB1

Departure

Time 2026-04-27 07:45
Airport Geraldton Airport (YGEL)

Arrival

Time 2026-04-27 08:24
Airport Perth International Airport (YPPH)
Time Latitude Longitude Altitude Speed Heading
2026-04-27 07:08 -28.79612 114.70291 118 ft 0 kts 156°
2026-04-27 07:38 -28.79613 114.70292 119 ft 0 kts 156°
2026-04-27 07:39 -28.79625 114.70299 117 ft 4 kts 150°
2026-04-27 07:40 -28.79642 114.70324 119 ft 2 kts 99°
2026-04-27 07:40 -28.79629 114.70346 118 ft 5 kts 31°
2026-04-27 07:40 -28.79585 114.70370 119 ft 9 kts 37°
2026-04-27 07:40 -28.79580 114.70439 115 ft 11 kts 107°
2026-04-27 07:41 -28.79606 114.70532 118 ft 14 kts 107°
2026-04-27 07:41 -28.79624 114.70643 120 ft 14 kts 60°
2026-04-27 07:41 -28.79532 114.70697 119 ft 17 kts 23°
2026-04-27 07:41 -28.79412 114.70745 119 ft 20 kts 18°
2026-04-27 07:42 -28.79268 114.70800 117 ft 24 kts 20°
2026-04-27 07:42 -28.79100 114.70858 116 ft 27 kts 15°
2026-04-27 07:42 -28.78923 114.70932 116 ft 21 kts 17°
2026-04-27 07:42 -28.78837 114.70964 114 ft 10 kts 20°
2026-04-27 07:43 -28.78777 114.70983 115 ft 6 kts 349°
2026-04-27 07:43 -28.78771 114.70966 116 ft 1 kts 259°
2026-04-27 07:43 -28.78776 114.70958 115 ft 1 kts 232°
2026-04-27 07:43 -28.78784 114.70956 114 ft 2 kts 185°
2026-04-27 07:44 -28.78804 114.70955 116 ft 4 kts 187°
2026-04-27 07:44 -28.78967 114.70905 114 ft 54 kts 198°
2026-04-27 07:44 -28.79507 114.70693 120 ft 109 kts 198°
2026-04-27 07:44 -28.80368 114.70361 165 ft 144 kts 202°
2026-04-27 07:45 -28.81202 114.69964 824 ft 121 kts 199°
2026-04-27 07:45 -28.82061 114.69519 914 ft 154 kts 198°
2026-04-27 07:45 -28.83128 114.68956 1085 ft 179 kts 200°
2026-04-27 07:45 -28.84325 114.68293 1455 ft 204 kts 201°
2026-04-27 07:46 -28.85663 114.67553 1933 ft 223 kts 201°
2026-04-27 07:46 -28.87104 114.66804 2645 ft 228 kts 200°
2026-04-27 07:46 -28.88517 114.66105 3722 ft 211 kts 202°
2026-04-27 07:46 -28.89795 114.65546 4833 ft 198 kts 190°
2026-04-27 07:47 -28.91188 114.65831 5262 ft 218 kts 143°
2026-04-27 07:47 -28.92173 114.67196 5600 ft 234 kts 112°
2026-04-27 07:47 -28.93003 114.68857 5898 ft 245 kts 118°
2026-04-27 07:47 -28.93980 114.70480 6200 ft 250 kts 124°
2026-04-27 07:48 -28.95111 114.72014 6494 ft 254 kts 130°
2026-04-27 07:48 -28.96365 114.73451 6781 ft 256 kts 134°
2026-04-27 07:48 -28.97698 114.74817 7067 ft 259 kts 136°
2026-04-27 07:48 -28.99082 114.76151 7337 ft 261 kts 138°
2026-04-27 07:49 -29.00486 114.77472 7641 ft 263 kts 138°
2026-04-27 07:49 -29.01909 114.78805 7943 ft 265 kts 138°
2026-04-27 07:49 -29.03314 114.80132 8236 ft 267 kts 138°
2026-04-27 07:49 -29.04744 114.81496 8533 ft 269 kts 137°
2026-04-27 07:50 -29.06189 114.82866 8840 ft 271 kts 140°
2026-04-27 07:50 -29.07651 114.84236 9136 ft 273 kts 140°
2026-04-27 07:50 -29.09122 114.85619 9434 ft 275 kts 139°
2026-04-27 07:50 -29.10600 114.87023 9759 ft 277 kts 140°
2026-04-27 07:51 -29.12085 114.88448 10050 ft 280 kts 140°
2026-04-27 07:51 -29.13580 114.89891 10330 ft 282 kts 140°
2026-04-27 07:51 -29.15077 114.91345 10612 ft 283 kts 140°
2026-04-27 07:51 -29.16590 114.92815 10912 ft 291 kts 140°
2026-04-27 07:52 -29.18183 114.94364 11231 ft 311 kts 140°
2026-04-27 07:52 -29.19887 114.96021 11546 ft 331 kts 140°
2026-04-27 07:52 -29.21696 114.97781 11862 ft 352 kts 140°
2026-04-27 07:52 -29.23593 114.99626 12175 ft 373 kts 140°
2026-04-27 07:53 -29.25616 115.01597 12483 ft 389 kts 140°
2026-04-27 07:53 -29.27686 115.03615 12797 ft 393 kts 140°
2026-04-27 07:53 -29.29774 115.05651 13100 ft 395 kts 140°
2026-04-27 07:53 -29.31866 115.07693 13424 ft 397 kts 140°
2026-04-27 07:54 -29.33966 115.09745 13745 ft 395 kts 141°
2026-04-27 07:54 -29.36053 115.11781 14028 ft 394 kts 141°
2026-04-27 07:54 -29.38148 115.13820 14302 ft 395 kts 141°
2026-04-27 07:54 -29.40252 115.15865 14580 ft 397 kts 141°
2026-04-27 07:55 -29.42362 115.17914 14866 ft 399 kts 141°
2026-04-27 07:55 -29.44487 115.19979 15145 ft 401 kts 141°
2026-04-27 07:55 -29.46620 115.22054 15432 ft 403 kts 141°
2026-04-27 07:55 -29.48764 115.24141 15721 ft 405 kts 140°
2026-04-27 07:56 -29.50916 115.26237 16012 ft 407 kts 140°
2026-04-27 07:56 -29.53050 115.28317 16312 ft 409 kts 140°
2026-04-27 07:56 -29.55230 115.30444 16604 ft 412 kts 141°
2026-04-27 07:56 -29.57423 115.32584 16915 ft 415 kts 141°
2026-04-27 07:57 -29.59624 115.34733 17203 ft 417 kts 140°
2026-04-27 07:57 -29.61836 115.36895 17512 ft 418 kts 140°
2026-04-27 07:57 -29.64057 115.39066 17821 ft 420 kts 140°
2026-04-27 07:57 -29.66288 115.41250 18148 ft 423 kts 140°
2026-04-27 07:58 -29.68534 115.43448 18443 ft 425 kts 140°
2026-04-27 07:58 -29.70793 115.45662 18701 ft 427 kts 140°
2026-04-27 07:58 -29.73056 115.47880 18940 ft 429 kts 140°
2026-04-27 07:58 -29.75328 115.50108 19007 ft 430 kts 140°
2026-04-27 07:59 -29.77576 115.52315 19015 ft 431 kts 141°
2026-04-27 07:59 -29.82145 115.56804 19015 ft 435 kts 140°
2026-04-27 07:59 -29.84494 115.59112 19019 ft 452 kts 141°
2026-04-27 08:00 -29.86931 115.61506 19018 ft 468 kts 141°
2026-04-27 08:00 -29.89444 115.63977 19019 ft 481 kts 140°
2026-04-27 08:00 -29.92017 115.66511 19021 ft 493 kts 140°
2026-04-27 08:00 -29.94643 115.69100 19017 ft 499 kts 140°
2026-04-27 08:01 -29.97283 115.71705 19025 ft 499 kts 140°
2026-04-27 08:01 -29.99923 115.74313 19007 ft 500 kts 140°
2026-04-27 08:01 -30.02563 115.76922 19019 ft 500 kts 140°
2026-04-27 08:01 -30.05204 115.79535 19020 ft 500 kts 140°
2026-04-27 08:02 -30.07811 115.82115 19019 ft 500 kts 140°
2026-04-27 08:02 -30.10449 115.84728 19019 ft 500 kts 140°
2026-04-27 08:02 -30.13091 115.87346 19011 ft 500 kts 140°
2026-04-27 08:02 -30.15728 115.89961 19022 ft 500 kts 140°
2026-04-27 08:03 -30.18369 115.92581 19032 ft 500 kts 140°
2026-04-27 08:03 -30.21010 115.95204 19009 ft 500 kts 140°
2026-04-27 08:03 -30.23653 115.97831 19020 ft 501 kts 140°
2026-04-27 08:03 -30.26296 116.00460 19020 ft 501 kts 140°
2026-04-27 08:04 -30.28935 116.03087 19021 ft 501 kts 140°
2026-04-27 08:04 -30.31573 116.05715 19022 ft 501 kts 140°
2026-04-27 08:04 -30.34185 116.08319 19022 ft 502 kts 140°
2026-04-27 08:04 -30.36826 116.10953 19017 ft 501 kts 140°
2026-04-27 08:05 -30.39471 116.13594 19028 ft 502 kts 140°
2026-04-27 08:05 -30.42117 116.16237 19022 ft 502 kts 140°
2026-04-27 08:05 -30.44761 116.18880 19024 ft 503 kts 140°
2026-04-27 08:05 -30.47412 116.21532 19020 ft 503 kts 140°
2026-04-27 08:06 -30.50063 116.24186 19020 ft 503 kts 140°
2026-04-27 08:06 -30.52708 116.26836 19016 ft 503 kts 140°
2026-04-27 08:06 -30.55356 116.29491 19017 ft 502 kts 140°
2026-04-27 08:06 -30.57988 116.32133 19022 ft 501 kts 140°
2026-04-27 08:07 -30.60607 116.34764 19014 ft 488 kts 140°
2026-04-27 08:07 -30.63119 116.37292 19013 ft 467 kts 140°
2026-04-27 08:07 -30.65521 116.39710 19018 ft 448 kts 140°
2026-04-27 08:07 -30.67829 116.42037 19017 ft 434 kts 140°
2026-04-27 08:08 -30.70074 116.44299 19025 ft 432 kts 140°
2026-04-27 08:08 -30.72346 116.46588 19025 ft 433 kts 140°
2026-04-27 08:08 -30.74625 116.48885 19018 ft 434 kts 140°
2026-04-27 08:08 -30.77096 116.50872 19028 ft 431 kts 154°
2026-04-27 08:09 -30.79880 116.52056 19018 ft 425 kts 173°
2026-04-27 08:09 -30.82783 116.52194 19031 ft 414 kts 192°
2026-04-27 08:09 -30.85605 116.51580 18995 ft 411 kts 199°
2026-04-27 08:09 -30.88340 116.50679 18595 ft 408 kts 203°
2026-04-27 08:10 -30.91018 116.49619 18082 ft 404 kts 205°
2026-04-27 08:10 -30.93653 116.48505 17535 ft 401 kts 206°
2026-04-27 08:10 -30.96261 116.47396 17002 ft 398 kts 206°
2026-04-27 08:10 -30.98864 116.46309 16476 ft 396 kts 205°
2026-04-27 08:11 -31.01420 116.45266 15969 ft 393 kts 205°
2026-04-27 08:11 -31.04001 116.44235 15464 ft 391 kts 205°
2026-04-27 08:11 -31.06569 116.43223 14962 ft 388 kts 205°
2026-04-27 08:11 -31.09118 116.42221 14484 ft 386 kts 205°
2026-04-27 08:12 -31.11654 116.41224 14001 ft 383 kts 204°
2026-04-27 08:12 -31.14173 116.40235 13479 ft 380 kts 204°
2026-04-27 08:12 -31.16667 116.39255 12943 ft 377 kts 205°
2026-04-27 08:12 -31.19148 116.38279 12413 ft 375 kts 205°
2026-04-27 08:13 -31.21611 116.37310 11886 ft 372 kts 205°
2026-04-27 08:13 -31.24026 116.36360 11381 ft 370 kts 205°
2026-04-27 08:13 -31.26420 116.35420 11262 ft 355 kts 205°
2026-04-27 08:13 -31.28720 116.34521 11118 ft 344 kts 206°
2026-04-27 08:14 -31.30972 116.33633 10611 ft 339 kts 206°
2026-04-27 08:14 -31.33210 116.32746 9853 ft 341 kts 206°
2026-04-27 08:14 -31.35443 116.31861 9272 ft 335 kts 206°
2026-04-27 08:14 -31.37605 116.31012 9027 ft 318 kts 206°
2026-04-27 08:15 -31.39640 116.30216 8994 ft 301 kts 206°
2026-04-27 08:15 -31.41625 116.29473 8930 ft 301 kts 203°
2026-04-27 08:15 -31.43659 116.28875 8531 ft 303 kts 200°
2026-04-27 08:15 -31.45721 116.28326 7861 ft 306 kts 199°
2026-04-27 08:16 -31.47810 116.27781 7159 ft 309 kts 199°
2026-04-27 08:16 -31.49921 116.27234 6477 ft 311 kts 199°
2026-04-27 08:16 -31.52042 116.26682 5762 ft 313 kts 199°
2026-04-27 08:16 -31.54141 116.26135 5066 ft 314 kts 198°
2026-04-27 08:17 -31.56266 116.25580 4344 ft 313 kts 197°
2026-04-27 08:17 -31.58388 116.25027 3876 ft 309 kts 196°
2026-04-27 08:17 -31.60440 116.24497 3869 ft 292 kts 196°
2026-04-27 08:17 -31.62362 116.24009 4185 ft 277 kts 197°
2026-04-27 08:18 -31.64247 116.23526 4851 ft 281 kts 197°
2026-04-27 08:18 -31.66181 116.23009 4605 ft 284 kts 197°
2026-04-27 08:18 -31.68095 116.22498 4287 ft 281 kts 196°
2026-04-27 08:18 -31.69990 116.21995 4043 ft 277 kts 197°
2026-04-27 08:19 -31.71865 116.21497 4002 ft 276 kts 196°
2026-04-27 08:19 -31.73746 116.21000 4003 ft 277 kts 196°
2026-04-27 08:19 -31.75606 116.20510 4003 ft 278 kts 196°
2026-04-27 08:19 -31.77494 116.20012 3889 ft 278 kts 196°
2026-04-27 08:20 -31.79387 116.19514 3479 ft 280 kts 196°
2026-04-27 08:20 -31.81285 116.18964 3038 ft 280 kts 202°
2026-04-27 08:20 -31.82835 116.17738 2830 ft 262 kts 233°
2026-04-27 08:20 -31.83838 116.16047 2793 ft 244 kts 242°
2026-04-27 08:21 -31.84682 116.14376 2793 ft 231 kts 244°
2026-04-27 08:21 -31.85480 116.12762 2796 ft 228 kts 243°
2026-04-27 08:21 -31.86309 116.11161 2736 ft 230 kts 243°
2026-04-27 08:21 -31.87118 116.09584 2475 ft 231 kts 242°
2026-04-27 08:22 -31.87944 116.07965 2153 ft 226 kts 242°
2026-04-27 08:22 -31.88752 116.06383 1813 ft 222 kts 240°
2026-04-27 08:22 -31.89529 116.04863 1471 ft 209 kts 240°
2026-04-27 08:22 -31.90244 116.03463 1201 ft 192 kts 239°
2026-04-27 08:23 -31.90904 116.02172 955 ft 176 kts 238°
2026-04-27 08:23 -31.91512 116.00982 733 ft 163 kts 237°
2026-04-27 08:23 -31.92076 115.99879 529 ft 151 kts 237°
2026-04-27 08:23 -31.92590 115.98872 348 ft 138 kts 238°
2026-04-27 08:24 -31.93066 115.97938 181 ft 126 kts 238°
2026-04-27 08:24 -31.93490 115.97115 59 ft 104 kts 238°
2026-04-27 08:24 -31.93693 115.96704 55 ft 23 kts 237°
2026-04-27 08:24 -31.93716 115.96664 56 ft 5 kts 236°
2026-04-27 08:25 -31.93724 115.96617 58 ft 2 kts 276°
2026-04-27 08:25 -31.93738 115.96587 62 ft 6 kts 236°
2026-04-27 08:25 -31.93777 115.96524 62 ft 14 kts 232°
2026-04-27 08:25 -31.93845 115.96404 56 ft 20 kts 242°
2026-04-27 08:26 -31.93896 115.96306 61 ft 13 kts 245°
2026-04-27 08:26 -31.93879 115.96224 61 ft 11 kts 323°
2026-04-27 08:26 -31.93818 115.96214 58 ft 11 kts
2026-04-27 08:26 -31.93774 115.96199 55 ft 0 kts 342°
2026-04-27 08:27 -31.93761 115.96195 57 ft 6 kts 343°
2026-04-27 08:27 -31.93677 115.96173 55 ft 18 kts 340°
2026-04-27 08:27 -31.93625 115.96104 53 ft 0 kts 299°
2026-04-27 08:27 -31.93623 115.96100 54 ft 1 kts 297°
2026-04-27 08:28 -31.93620 115.96093 54 ft 0 kts 295°